TimeEDT,TemperatureF,Dew PointF,Humidity,Sea Level PressureIn,VisibilityMPH,Wind Direction,Wind SpeedMPH,Gust SpeedMPH,PrecipitationIn,Events,Conditions,WindDirDegrees,DateUTC
12:53 AM,63.0,60.1,90,30.12,9.0,Calm,Calm,-,N/A,,Clear,0,2013-10-02 04:53:00
1:53 AM,62.1,60.1,93,30.12,8.0,Calm,Calm,-,N/A,,Clear,0,2013-10-02 05:53:00
2:53 AM,61.0,59.0,93,30.12,8.0,Calm,Calm,-,N/A,,Clear,0,2013-10-02 06:53:00
3:53 AM,60.1,57.9,93,30.11,7.0,Calm,Calm,-,N/A,,Clear,0,2013-10-02 07:53:00
4:53 AM,59.0,57.0,93,30.11,8.0,Calm,Calm,-,N/A,,Clear,0,2013-10-02 08:53:00
5:53 AM,59.0,57.0,93,30.12,7.0,Calm,Calm,-,N/A,,Clear,0,2013-10-02 09:53:00
6:53 AM,59.0,57.0,93,30.13,7.0,Calm,Calm,-,N/A,,Clear,0,2013-10-02 10:53:00
7:53 AM,59.0,57.0,93,30.15,5.0,Calm,Calm,-,N/A,,Clear,0,2013-10-02 11:53:00
8:53 AM,64.0,60.1,87,30.17,9.0,Calm,Calm,-,N/A,,Clear,0,2013-10-02 12:53:00
9:53 AM,72.0,62.1,71,30.17,10.0,Calm,Calm,-,N/A,,Clear,0,2013-10-02 13:53:00
10:53 AM,77.0,60.1,56,30.17,10.0,Calm,Calm,-,N/A,,Clear,0,2013-10-02 14:53:00
11:53 AM,80.1,60.1,50,30.16,10.0,Variable,3.5,-,N/A,,Clear,0,2013-10-02 15:53:00
12:53 PM,82.9,59.0,44,30.14,10.0,Variable,5.8,-,N/A,,Clear,0,2013-10-02 16:53:00
1:53 PM,84.0,57.0,40,30.11,10.0,Variable,3.5,-,N/A,,Clear,0,2013-10-02 17:53:00
2:53 PM,86.0,55.9,36,30.09,10.0,Calm,Calm,-,N/A,,Clear,0,2013-10-02 18:53:00
3:53 PM,87.1,54.0,32,30.08,10.0,Variable,3.5,-,N/A,,Mostly Cloudy,0,2013-10-02 19:53:00
4:53 PM,86.0,55.0,35,30.07,10.0,Calm,Calm,-,N/A,,Clear,0,2013-10-02 20:53:00
5:53 PM,86.0,55.0,35,30.08,10.0,Calm,Calm,-,N/A,,Clear,0,2013-10-02 21:53:00
6:53 PM,78.1,62.1,58,30.08,10.0,Calm,Calm,-,N/A,,Clear,0,2013-10-02 22:53:00
7:53 PM,73.9,62.1,66,30.09,10.0,Calm,Calm,-,N/A,,Clear,0,2013-10-02 23:53:00
8:53 PM,71.1,63.0,75,30.10,10.0,Calm,Calm,-,N/A,,Clear,0,2013-10-03 00:53:00
9:53 PM,69.1,63.0,81,30.11,10.0,Calm,Calm,-,N/A,,Clear,0,2013-10-03 01:53:00
10:53 PM,66.9,63.0,87,30.12,10.0,Calm,Calm,-,N/A,,Clear,0,2013-10-03 02:53:00
11:53 PM,66.9,63.0,87,30.14,10.0,Calm,Calm,-,N/A,,Clear,0,2013-10-03 03:53:00